Regional Weather Roundup
Issued by NWS Upton, NY

Home | Current Version | Previous Version | Text Only | Print | Product List | Glossary On
Versions: 1 2 3 4 5 6 7 8 9 10 11 12 13 14 15 16 17 18 19 20 21 22 23 24 25 26 27 28 29 30 31 32 33 34 35 36 37 38 39 40 41 42 43 44 45 46 47 48 49 50
000
ASUS41 KOKX 020704
RWROKX

REGIONAL WEATHER ROUNDUP
NATIONAL WEATHER SERVICE NEW YORK NY
300 AM EDT SUN AUG 02 2015

NOTE: "FAIR" INDICATES FEW OR NO CLOUDS BELOW 12,000 FEET WITH NO
SIGNIFICANT WEATHER AND/OR OBSTRUCTIONS TO VISIBILITY.

NYZ071-072-176-178-NJZ106-104-020800-
NEW YORK CITY METRO AREA


CITY           SKY/WX    TMP DP  RH WIND       PRES   REMARKS
CENTRAL PARK   CLEAR     75  55  49 W5        29.90S
LAGUARDIA APRT PTCLDY    76  58  53 NW3       29.86S
KENNEDY INTL   PTCLDY    77  54  44 NW5       29.87S
NEWARK/LIBERTY PTCLDY    73  59  61 W6        29.87S
BRNX BOT. GARD   N/A     72  54  53 E1        29.89R
TETERBORO      CLEAR     70  56  61 CALM      29.87R
$$

NYZ177-179-078>081-020800-
LONG ISLAND NEW YORK

CITY           SKY/WX    TMP DP  RH WIND       PRES   REMARKS
FARMINGDALE    PTCLDY    73  57  57 CALM      29.87R
ISLIP          PTCLDY    67  57  70 NW3       29.85R
SHIRLEY        CLEAR     64  59  83 CALM      29.87R
WESTHAMPTON    CLEAR     59  55  87 CALM      29.88R
MONTAUK POINT    N/A     73  65  75 CALM      29.87R
$$

NYZ052-065-067-020800-
HUDSON VALLEY

CITY           SKY/WX    TMP DP  RH WIND       PRES   REMARKS
WHITE PLAINS   CLEAR     67  58  72 NW3       29.88R
NEWBURGH       CLEAR     61  57  88 CALM      29.90
MONTGOMERY     CLEAR     59  57  93 SW6       29.89R
POUGHKEEPSIE   CLEAR     61  57  87 CALM      29.87R
ALBANY         CLEAR     60  54  80 CALM      29.86S
$$

NJZ001-105-106-008-010-013-015-019>022-104-020800-
NEW JERSEY

CITY           SKY/WX    TMP DP  RH WIND       PRES   REMARKS
NEWARK/LIBERTY PTCLDY    73  59  61 W6        29.87S
TETERBORO      CLEAR     70  56  61 CALM      29.87R
CALDWELL       CLEAR     65  57  75 CALM      29.89R
MORRISTOWN     CLEAR     61  57  88 CALM      29.89R
SOMERVILLE     PTCLDY    61  58  90 CALM      29.87R
SUSSEX         CLEAR     58  55  90 CALM      29.90R
ANDOVER          N/A     59  59 100 CALM      29.91R
TRENTON        PTCLDY    67  59  75 CALM      29.88S
MILLVILLE      CLEAR     66  64  93 W3        29.89S
ATLANTIC CITY  CLEAR     72  66  81 S5        29.89S
WRIGHTSTOWN    NOT AVBL
TOMS RIVER       N/A     63  59  88 CALM      29.88S
BELMAR         CLEAR     68  55  64 CALM      29.87F
$$

PAZ047>061-062-071-020800-
EASTERN PENNSYLVANIA

CITY           SKY/WX    TMP DP  RH WIND       PRES   REMARKS
PHILADELPHIA   PTCLDY    74  59  59 NW7       29.89S
ALLENTOWN      CLEAR     66  57  72 SW3       29.90R
SCRANTON       CLEAR     60  56  86 CALM      29.92R
$$

CTZ002-004>006-009-010-012-RIZ004-006-007-MAZ004-011-015-020800-
SOUTHERN NEW ENGLAND
 IN CT

CITY           SKY/WX    TMP DP  RH WIND       PRES   REMARKS
BRADLEY INTL   CLEAR     62  56  80 W3        29.86S
HARTFORD       CLEAR     66  64  93 CALM      29.86S
DANBURY        CLEAR     60  56  86 SW3       29.89S
WTRBRY/OXFORD  CLEAR     64  52  63 CALM      29.89S
BRIDGEPORT     CLEAR     70  59  68 N5        29.86S
MERIDEN        CLEAR     62  59  90 CALM      29.86S
NEW HAVEN      CLEAR     67  60  78 N3        29.86S
CHESTER        FAIR      66  57  72 CALM      29.88R
GROTON         CLEAR     64  62  93 CALM      29.85S
WILLIMANTIC    CLEAR     63  60  90 N3        29.87R

 IN RI

CITY           SKY/WX    TMP DP  RH WIND       PRES   REMARKS
PROVIDENCE     CLEAR     68  62  81 NW7       29.85R
BLOCK ISLAND     N/A     68  64  88 NW7       29.85S
WESTERLY       CLEAR     65  62  90 CALM      29.86R

 IN MA

CITY           SKY/WX    TMP DP  RH WIND       PRES   REMARKS
BOSTON         PTCLDY    72  53  51 W9        29.82S
WORCESTER      CLEAR     63  53  70 W9        29.87F
WESTFIELD      CLEAR     58  56  93 CALM      29.86S
PROVINCETOWN   MOCLDY    70  61  73 W7        29.83R
NANTUCKET      CLEAR     72  70  93 NW7       29.82S
$$

ANZ330-335-338-340-345-350-353-355-020800-
COASTAL MARINE OBSERVATIONS


STATION/POSITION TIME  SKY/WX   TEMP    WIND        PRES    VSBY  WAVE
                                AIR SEA DIR/SP/G                  HT/PER
                 (UTC)          (F)     (DEG/KT/KT) (MB)    (MI)  (FT/S)
NY HARB ENTRANCE 0550            76 77  260/  8/ 10 1010.9          3/ 9
4S FIRE IS       NOT AVBL
20S FIRE ISLAND  0550            77 76  280/  8/ 10 1010.9          3/ 8
GREAT SOUTH BAY  0615            76 80  310/  8/  8   N/A
23SW MTP         0650            74 74  300/  8/ 10 1010.4          4/ 9
HUDSON CANYON    NOT AVBL
KINGS POINT      0600            74 70     CALM     1010.5
EXECUTION ROCKS  0600            74     210/  2/  2   N/A
CENTRAL LI SOUND NOT AVBL
EASTERN LI SOUND 0600            69 68  280/  4/  4   N/A
ROBBINS REEF     0600            76     270/  4/  5 1010.3
$$


>>>>>>>>>>>>>>>>>>>>>>>>>>>> KEY <<<<<<<<<<<<<<<<<<<<<<<<<<<
>                                                          <
>     SKY/WX - SKY CONDITION/PRESENT WEATHER               <
>     TMP    - TEMPERATURE IN FAHRENHEIT                   <
>     DP     - DEWPOINT IN FAHRENHEIT                      <
>     RH     - RELATIVE HUMIDITY IN PERCENT                <
>     WIND   - DIRECTION AND SPEED IN MPH                  <
>     PRES   - MEAN SEA LEVEL PRESSURE IN INCHES OF HG     <
>     WCI    - WIND CHILL INDEX                            <
>     VSB    - VISIBILITY IN MILES                         <
>     HX     - HEAT INDEX                                  <
>     TC     - TEMPERATURE IN CELSIUS                      <
>     VRB    - VARIABLE WIND DIRECTION                     <
>                                                          <
>>>>>>>>>>>>>>>>>>>>>>>>>>>> KEY <<<<<<<<<<<<<<<<<<<<<<<<<<<





USA.gov is the U.S. government's official web portal to all federal, state and local government web resources and services.